Regional Weather Roundup
Issued by NWS

Home | Current Version | Previous Version | Text Only | Print | Product List | Glossary On
Versions: 1 2 3 4 5 6 7 8 9 10 11 12 13 14 15 16 17 18 19 20 21 22 23 24 25 26 27 28 29 30 31 32 33 34 35 36 37 38 39 40 41 42 43 44 45 46 47 48 49 50
000
ASUS45 KPSR 050610
RWRAZ

ARIZONA HOURLY REGIONAL WEATHER ROUNDUP
NATIONAL WEATHER SERVICE PHOENIX AZ
1100 PM MST TUE AUG 04 2015

NOTE: FAIR INDICATES FEW OR NO CLOUDS BELOW 12,000 FEET WITH NO
SIGNIFICANT WEATHER AND/OR OBSTRUCTIONS TO VISIBILITY.

AZZ001>003-036-050700-
NORTHWEST ARIZONA

CITY           SKY/WX    TMP DP  RH WIND       PRES   REMARKS
BULLHEAD CITY  CLEAR     95  32  11 N3        29.77R
KINGMAN        CLEAR     80  31  16 SE12      30.01S
6HR MIN TEMP:  80; 6HR MAX TEMP:  99;

$$

AZZ004>008-015-016-018-050700-
NORTH CENTRAL ARIZONA

CITY           SKY/WX    TMP DP  RH WIND       PRES   REMARKS
GRAND CANYON   CLEAR     53  31  42 CALM      30.29R
6HR MIN TEMP:  53; 6HR MAX TEMP:  87;

WILLIAMS       CLOUDY    63  30  29 CALM      30.35S
PRESCOTT       CLEAR     73  36  25 S9        30.17S
6HR MIN TEMP:  70; 6HR MAX TEMP:  91;

FLAGSTAFF      CLEAR     56  32  40 CALM      30.34S
6HR MIN TEMP:  55; 6HR MAX TEMP:  83;

PAYSON         CLEAR     73  32  21 CALM      30.21R
PAGE           PTCLDY    86  30  13 W5        30.04R
6HR MIN TEMP:  84; 6HR MAX TEMP:  98;

$$

AZZ009>014-017-050700-
NORTHEAST ARIZONA

CITY           SKY/WX    TMP DP  RH WIND       PRES   REMARKS
WINSLOW        CLEAR     77  33  20 SW14      30.14R
6HR MIN TEMP:  76; 6HR MAX TEMP:  96;

SAINT JOHNS    CLEAR     73  40  30 SW10      30.20R
6HR MIN TEMP:  73; 6HR MAX TEMP:  90;

SHOW LOW       CLEAR     66  39  37 S8        30.29S
$$

AZZ023-050700-
GREATER PHOENIX AREA

CITY           SKY/WX    TMP DP  RH WIND       PRES   REMARKS
PHOENIX        CLEAR    100  48  17 W6        29.81S
6HR MIN TEMP:  98; 6HR MAX TEMP: 110;

BUCKEYE        CLEAR     91  45  19 CALM      29.83S
LUKE AFB       CLEAR     94  52  23 SW7       29.81S
6HR MIN TEMP:  94; 6HR MAX TEMP: 110;

DEER VALLEY    CLEAR     91  43  18 CALM      29.85R
6HR MIN TEMP:  91; 6HR MAX TEMP: 108;

SCOTTSDALE     CLEAR     96  46  18 CALM      29.86S
6HR MIN TEMP:  96; 6HR MAX TEMP: 108;

MESA-GATEWAY   CLEAR     91  43  18 CALM      29.86S
$$

AZZ027-028-050700-
SOUTHWEST MARICOPA COUNTY AND PINAL COUNTY

CITY           SKY/WX    TMP DP  RH WIND       PRES   REMARKS
CASA GRANDE    CLEAR     97  50  20 W6        29.85S
6HR MIN TEMP:  93; 6HR MAX TEMP: 108;

GILA BEND      FAIR      95  47  19 SW8       29.81R
6HR MIN TEMP:  95; 6HR MAX TEMP: 110;

$$

AZZ503-504-507>509-050700-
SOUTHEAST ARIZONA

CITY           SKY/WX    TMP DP  RH WIND       PRES   REMARKS
TUCSON         PTCLDY    90  51  26 W6        29.98R
6HR MIN TEMP:  90; 6HR MAX TEMP: 105;

DAVIS-MONTHAN  CLEAR     90  50  25 NW3       29.96R
6HR MIN TEMP:  90; 6HR MAX TEMP: 103;

NOGALES        MOCLDY    80  56  43 S6        30.11R
6HR MIN TEMP:  77; 6HR MAX TEMP:  96;

SIERRA VISTA   MOCLDY    80  48  32 SW7       30.16R
6HR MIN TEMP:  80; 6HR MAX TEMP:  92;

DOUGLAS        CLOUDY    79  60  52 SE7       30.11R
6HR MIN TEMP:  74; 6HR MAX TEMP:  98;

SAFFORD        CLEAR     87  43  21 NW13      29.97S
6HR MIN TEMP:  87; 6HR MAX TEMP: 105;

$$

AZZ020-021-025-026-031-050700-
SOUTHWEST ARIZONA

CITY           SKY/WX    TMP DP  RH WIND       PRES   REMARKS
YUMA           CLEAR     92  56  29 S7        29.78R
6HR MIN TEMP:  91; 6HR MAX TEMP: 112;

$$

CAZ031-033-041-043-047-048-061-050700-
SOUTHERN CALIFORNIA

CITY           SKY/WX    TMP DP  RH WIND       PRES   REMARKS
DOWNTOWN L.A.  CLEAR     73  59  61 E3        29.90S
6HR MIN TEMP:  72; 6HR MAX TEMP:  82;

L.A. AIRPORT   CLEAR     72  63  73 SE6       29.91S
6HR MIN TEMP:  71; 6HR MAX TEMP:  77;

SAN DIEGO      CLEAR     73  64  73 NW6       29.94R
6HR MIN TEMP:  73; 6HR MAX TEMP:  80;

BURBANK        CLEAR     81  52  36 CALM      29.92S
6HR MIN TEMP:  80; 6HR MAX TEMP:  92;

ONTARIO        PTCLDY    77  52  41 CALM      29.94S
6HR MIN TEMP:  76; 6HR MAX TEMP:  94;

RIVERSIDE      CLEAR     77  54  44 W3        29.94R
6HR MIN TEMP:  77; 6HR MAX TEMP:  93;

PALM SPRINGS   CLEAR     98  41  14 W7        29.80R
6HR MIN TEMP:  98; 6HR MAX TEMP: 114;

EL CENTRO NAS  CLEAR     95  47  19 SW8       29.78R
6HR MIN TEMP:  93; 6HR MAX TEMP: 113;

IMPERIAL       CLEAR     93  49  22 SW5       29.75R
6HR MIN TEMP:  91; 6HR MAX TEMP: 111;

BLYTHE         CLEAR     94  42  16 S9        29.77R
6HR MIN TEMP:  94; 6HR MAX TEMP: 113;

NEEDLES        CLEAR     98  30   9 W12       29.78R
6HR MIN TEMP:  97; 6HR MAX TEMP: 113;

$$

NVZ020-UTZ003-050700-
SOUTHERN NEVADA-UTAH

CITY           SKY/WX    TMP DP  RH WIND       PRES   REMARKS
LAS VEGAS      PTCLDY    93  33  12 SW7       29.83R
6HR MIN TEMP:  93; 6HR MAX TEMP: 105;

SALT LAKE CITY PTCLDY    77  49  37 E5        29.95S
6HR MIN TEMP:  76; 6HR MAX TEMP:  91;

$$

NMZ009-TXZ055-050700-
NEW MEXICO-WEST TEXAS

CITY           SKY/WX    TMP DP  RH WIND       PRES   REMARKS
ALBUQUERQUE    CLEAR     79  45  29 VRB3      30.16S
6HR MIN TEMP:  77; 6HR MAX TEMP:  93;

EL PASO        PTCLDY    85  54  34 NE6       30.03S
6HR MIN TEMP:  84; 6HR MAX TEMP:  98;

$$


........................KEY........................
SKY/WX - SKY CONDITION/WEATHER
TMP    - TEMPERATURE IN FAHRENHEIT
DP     - DEW POINT IN FAHRENHEIT
RH     - RELATIVE HUMIDITY IN PERCENT
WIND   - DIRECTION AND SPEED IN MILES PER HOUR (MPH)
VRB    - VARIABLE WIND DIRECTION
PRES   - MEAN SEA LEVEL PRESSURE IN INCHES OF MERCURY
         F - FALLING PRESSURE   R - RISING PRESSURE
         S - STEADY PRESSURE
VSB    - VISIBILITY IN MILES
HX     - HEAT INDEX IN FAHRENHEIT
WCI    - WIND CHILL INDEX IN FAHRENHEIT
TC     - TEMPERATURE IN CELSIUS WHICH IS ALSO KNOWN AS
         TEMPERATURE IN CENTIGRADE
AFB    - AIR FORCE BASE
         LUKE AFB IS LUKE AIR FORCE BASE
         DAVIS-MONTHAN IS DAVIS-MONTHAN AIR FORCE BASE
NAS    - NAVAL AIR STATION
         EL CENTRO NAS IS EL CENTRO NAVAL AIR STATION
N/A    - NOT AVAILABLE




USA.gov is the U.S. government's official web portal to all federal, state and local government web resources and services.